Погода в Ташире

Армения     41°07′14″N   44°16′56″E
темп.,
°C
ветер,
м/с
пор.,
м/с
влажн.,
%
обл.,
%
осадки,
мм/ч
давл.,
гПа
погр.,
м
5 августа, чт
чт501:00+13сз11570 0.0 101911
04:00+12сз12580 0.0 101912
07:00+13зсз11620 0.0 101913
10:00+20св224518 0.0 1017684
13:00+23св32400 0.0 10151414
16:00+24ссв54380 0.0 10131644
19:00+20ссв345398 0.0 1014117
22:00+14сз125799 0.0 101711
6 августа, пт
пт601:00+14зсз115239 0.0 101611
04:00+13сз12554 0.0 101611
07:00+13сз22603 0.0 101615
10:00+20св22440 0.0 1014576
13:00+23св33370 0.0 10131478
16:00+25св54353 0.0 10111930
19:00+21св34491 0.0 1011137
22:00+15сз22525 0.0 101414
7 августа, сб
сб701:00+14сз124860 0.0 101412
04:00+13сз12514 0.0 101312
07:00+13зсз12574 0.0 101315
10:00+20св22430 0.0 1012523
13:00+23ссв33432 0.6 1010937
16:00+23св444482 0.9 10091246
19:00+17зюз2275100 1.1 101338
22:00+14ссз118898 1.9 101514
8 августа, вс
вс801:00+13з118784 0.4 101611
04:00+13зюз21835 0.4 101511
07:00+14юз22780 0.0 101523
10:00+22ю12522 0.0 1014611
13:00+27з153494 0.0 10123233
16:00+22в2256100 0.3 1013283
19:00+21всв126262 0.1 1014121
22:00+17ссз217056 0.8 101715
9 августа, пн
пн901:00+14зсз227828 1.0 101815
04:00+13зсз12802 1.0 101812
07:00+14зсз12780 0.0 101817
10:00+20св22573 0.0 1016596
13:00+25ссв334544 0.0 10141240
16:00+24св565014 0.4 10121218
19:00+16ссз248562 4.8 1018206
22:00+14с128847 8.1 101926